Location: Castillon
(43.0896°N, 0.2156°E)
Time: 11:09:48
(UTC+00:00)

Cosmos 1980 Rocket - Pass Details

Date: 26 October 2021
Orbit: 828 x 851 km, 71.0° (Epoch: 08 December)

Event Time Altitude Azimuth Distance (km) Brightness Sun altitude
Rises 18:05:52 0° 249° (WSW) 3,391 7.0 -12.8°
Reaches altitude 10° 18:09:00 10° 267° (W) 2,465 6.1 -13.3°
Maximum altitude 18:13:01 20° 312° (NW) 1,890 4.6 -14.1°
Drops below altitude 10° 18:17:04 10° 358° (N) 2,483 4.6 -14.8°
Sets 18:20:16 0° 15° (NNE) 3,424 5.2 -15.4°
